DECAYED
Showing default

TIANYI 33, 58553 (Decayed)

Orbit data source: Space-Track

TIANYI 33, 58553 was a Chinese payload satellite in LEO that was launched on Fri, 08 Dec 2023 UTC via a ZHUQUE-2 launch vehicle from the Jiuquan Satellite Launch Center, China (JSC). Payload-class satellites include a variety of spacecraft equipped with specific instruments for various scientific and technological missions. These include communications satellites like Starlink; space stations such as the ISS; scientific satellites like the Hubble; Earth observation satellites from companies like Planet Labs, Umbra, and HawkEye 360; GPS; miniature CubeSats for education and research; and military/defense satellites.

Loading next visibility...
Identifier
58553, 2023-193A
Orbit
Decayed
Country
Flag of CNCN / PRC
Related business
Manufacturer
Changsha Tianyi
Mission
Decayed Commercial Technology
Bus & Motor
TY-33, Unknown motor
Mass
~50 kg wet, ~50 kg dry
Launch date (UTC)
2023-12-08 (3 years ago)
Launch vehicle
ZHUQUE-2
Launch site
Jiuquan Satellite Launch Center, China (JSC)
Object type
Payload
Rocket body
Debris
Shape & HBR
Box + 2 Pan, 0.5 m
Radar Cross Section
0.255 m², Medium (>0.1 m² and < 1m²)

Expand to show TLE details & history
Last TLE update: 1 year ago

TLE from 1 year ago
0 TIANYI 33
1 58553U 23193A   25123.54437621  .17407261  25083-5  15362-2 0  9999
2 58553  97.1945 148.2762 0009276 232.7827 127.2627 16.39165138 79666
Epoch: 2025-05-03T13:03Z
TLE epoch observation values (Epoch: 2025-05-03T13:03:54.104Z)
Latitude
-0°
Longitude
90.61566°
Altitude
174.962 km
Speed
7.799 km/s
True Right ascension
09h 53m 06s
True Declination
0° 00' 00"
Sunlit
Object was in full shadow at epoch
Visualization orbit readout
Latitude
Unknown
Longitude
Unknown
Altitude
Unknown
Speed
Unknown
Apparent Right ascension
Unknown
Apparent Declination
Unknown
Sunlit
N/A
Visualization observer readout
Local Sidereal Time
00:54:26
Azimuth
Unknown
Elevation
Unknown
Doppler factor
Unknown
Orbital elements
Apogee altitude
170.893 km
Perigee altitude
158.755 km
Semi-major axis
6,542.961 km
Eccentricity
0.00093
Inclination
97.1945°
RAAN
148.2762°
Arg. of periapsis
232.7827°
True anomaly
127.34724°
Mean anomaly
127.2627°
Eccentric anomaly
127.30497°
Mean motion
4.10092 °/min
Orbital period
87.79 mins
BSTAR
0.0015362
Loading maneuver chart data...
Computing Atmospheric mass density...
Loading historical data...
Loading historical data...
Loading historical data...
Loading historical data...
Loading historical data...
Loading historical data...
Loading historical data...
Other satellites on launch #193 in the year 2023 (2023-12-08 UTC)

Documentation

Showing up to 5 results
|